Weather Roundup
Issued by NWS

Home | Current Version | Previous Version | Text Only | Print | Product List | Glossary On
Versions: 1 2 3 4 5 6 7 8 9 10 11 12 13 14 15 16 17 18 19 20 21 22 23 24 25 26 27 28 29 30 31 32 33 34 35 36 37 38 39 40 41 42 43 44 45 46 47 48 49 50
000
NZUS93 KARX 172259
HRRWXR

CURRENT HOURLY OBSERVATIONS ACROSS
MUCH OF THE UPPER MISSISSIPPI VALLEY
NATIONAL WEATHER SERVICE LA CROSSE WI
600 PM CDT THU AUG 17 2017


...SOUTHEAST MINNESOTA...


CITY           SKY/WX    TMP DP  RH WIND       PRES   REMARKS
ROCHESTER      PTSUNNY   72  64  76 NW20      29.77R
ROCHESTER/MAYO CLOUDY    73  62  69 W21G33    29.76R
WINONA         CLOUDY    70  61  73 NW7       29.73R
AUSTIN         CLOUDY    72  63  73 W10       29.80R
ALBERT LEA     PTSUNNY   73  64  73 NW8       29.82R
DODGE CENTER   CLOUDY    70  63  78 W15       29.78R
PRESTON        CLOUDY    71  63  74 NW17G23   29.78R
OWATONNA       PTSUNNY   72  64  78 W14G20    29.80R
FARIBAULT      RAIN      70  64  83 W15G21    29.80R
$$

...ELSEWHERE IN MINNESOTA...


CITY           SKY/WX    TMP DP  RH WIND       PRES   REMARKS
MINNEAPOLIS    CLOUDY    72  61  68 NW16      29.77R
INTNL FALLS    PTSUNNY   67  59  75 N8        29.81R
DULUTH         CLOUDY    62  61  96 NW13      29.74R
RED WING       CLOUDY    72  61  68 NW9       29.73R
REDWOOD FALLS  MOSUNNY   75  61  61 NW14G22   29.83R
MANKATO        CLOUDY    72  64  76 NW13      29.82R
WORTHINGTON    SUNNY     76  60  57 NW9       29.89R
FAIRMONT       PTSUNNY   73  63  70 NW15G21   29.86R
$$

...SOUTHWEST WISCONSIN...


CITY           SKY/WX    TMP DP  RH WIND       PRES   REMARKS
LA CROSSE      CLOUDY    73  62  68 NW15      29.71R
PRAIRIE DU CHI CLOUDY    74  62  65 W8G22     29.74R
BOSCOBEL       CLOUDY    72  65  78 W8G18     29.74R
LONE ROCK      NOT AVBL
PLATTEVILLE    CLOUDY    72  67  86 W14G25    29.75S
FORT MC COY    CLOUDY    67  61  80 W13G24    29.71R
CAMP DOUGLAS   CLOUDY    66  63  88 W18G26    29.68R
MAUSTON-NEW LI CLOUDY    70  64  81 W12G20    29.67R
VIROQUA        CLOUDY    67  63  86 W7G14     29.74R
WIS DELLS      CLOUDY    71  62  72 W14G20    29.68R
$$

...ELSEWHERE IN WISCONSIN...


CITY           SKY/WX    TMP DP  RH WIND       PRES   REMARKS
MILWAUKEE      PTSUNNY   77  66  68 W12G21    29.67S
MADISON        CLOUDY    71  65  81 VRB7G16   29.68R
GREEN BAY      LGT RAIN  74  67  78 SW14G25   29.56S
EAU CLAIRE     NOT AVBL
BLACK RVR FLS  CLOUDY    67  63  86 NW8G18    29.70R
MEDFORD        CLOUDY    64  62  90 W15G22    29.64R
WAUSAU         CLOUDY    70  65  84 W20G31    29.58R
WIS RAPIDS     CLOUDY    67  64  90 W15G25    29.66R
MARSHFIELD     CLOUDY    65  62  90 W16G22    29.65R
RICE LAKE      CLOUDY    63  61  93 W8G18     29.73R FOG
$$

...NORTHEAST IOWA...


CITY           SKY/WX    TMP DP  RH WIND       PRES   REMARKS
WATERLOO       CLOUDY    76  62  62 W16G22    29.80R
DUBUQUE        CLOUDY    73  63  70 W15G25    29.78R
DECORAH        CLOUDY    72  64  78 W8G20     29.76R
MASON CITY     PTSUNNY   73  62  68 W21       29.84R
CHARLES CITY   CLOUDY    73  64  73 W14G22    29.81R
OELWEIN        CLOUDY    73  66  78 W13G21    29.80R
$$

...ELSEWHERE IN IOWA...


CITY           SKY/WX    TMP DP  RH WIND       PRES   REMARKS
DES MOINES     MOSUNNY   82  60  47 NW17G23   29.85R
IOWA CITY      CLOUDY    78  65  63 W13       29.82R
FORT DODGE     MOSUNNY   75  63  64 NW8       29.87R
MARSHALLTOWN   CLOUDY    75  64  68 W15       29.84R
CEDAR RAPIDS   CLOUDY    76  63  64 W15G25    29.81R
$$

...NORTHERN ILLINOIS...


CITY           SKY/WX    TMP DP  RH WIND       PRES   REMARKS
CHICAGO-OHARE  PTSUNNY   81  64  56 W21G29    29.72S
CHICAGO-MIDWAY CLOUDY    81  65  58 W21G28    29.73S
MOLINE         MOSUNNY   81  63  54 W20G30    29.79R
ROCKFORD       PTSUNNY   77  65  66 W16G28    29.75R
PEORIA         MOSUNNY   84  64  50 W16G22    29.79S
$$

NOTE: "FAIR" INDICATES FEW OR NO CLOUDS BELOW 12,000 FEET WITH NO
SIGNIFICANT WEATHER AND/OR OBSTRUCTIONS TO VISIBILITY. WIND
SPEEDS ARE IN MILES-PER-HOUR.




USA.gov is the U.S. government's official web portal to all federal, state and local government web resources and services.